Weather History for Cedar City, UT

Change the Weather History Date:

Friday, September 13, 2013

  Actual Average Record
Temperature  
Mean Temperature 62 °F 63 °F  
Max Temperature 74 °F 80 °F 93 °F (1990)
Min Temperature 49 °F 46 °F 30 °F (1988)
Degree Days  
Heating Degree Days 3 3  
Month to date heating degree days 22 26  
Since 1 July heating degree days 25 35  
Cooling Degree Days 0 1  
Month to date cooling degree days 31 29  
Year to date cooling degree days 663 578  
Growing Degree Days 12 (Base 50)    
Moisture  
Dew Point 52 °F    
Average Humidity 69    
Maximum Humidity 89    
Minimum Humidity 49    
Precipitation  
Precipitation 0.00 in 0.02 in 0.52 in (1975)
Month to date precipitation 1.65 0.27  
Year to date precipitation 12.90 7.81  
Sea Level Pressure  
Sea Level Pressure 29.90 in    
Wind  
Wind Speed 4 mph (SW)    
Max Wind Speed 15 mph    
Max Gust Speed 20 mph    
Visibility 10 miles    
Events Rain , Thunderstorm    
T = Trace of Precipitation, MM = Missing Value Source: NWS Daily Summary

Daily Weather History Graph

Daily Weather History Graph

Search for Another Location

Airport:

Trip Planner

Search our weather history database for the weather conditions in past years. The results will help you decide how hot, cold, wet, or windy it might be!

Date:

Astronomy

Sep. 13, 2013 Rise Set
Actual Time 7:12 AM MDT 7:42 PM MDT
Civil Twilight 6:46 AM MDT 8:09 PM MDT
Nautical Twilight 6:15 AM MDT 8:40 PM MDT
Astronomical Twilight 5:43 AM MDT 9:11 PM MDT
Moon 3:31 PM MDT (9/13) 12:51 AM MDT (9/13)
Length of Visible Light 13h 22m
Length of Day
12h 29m
Waxing Gibbous, 62% of the Moon is Illuminated
Sep 13
Waxing Gibbous
Sep 19
Full
Sep 26
Last Quarter
Oct 4
New
Oct 11
First Quarter

Hourly Weather History & Observations

Time (MDT) Temp. Dew Point Humidity Pressure Visibility Wind Dir Wind Speed Gust Speed Precip Events Conditions
12:53 AM 52.0 °F 48.0 °F 86% 29.97 in 10.0 mi Calm Calm - N/A   Clear
1:53 AM 53.1 °F 48.0 °F 83% 29.95 in 10.0 mi Calm Calm - N/A   Partly Cloudy
2:53 AM 50.0 °F 46.9 °F 89% 29.95 in 10.0 mi South 3.5 mph - N/A   Clear
3:53 AM 52.0 °F 46.9 °F 83% 29.93 in 10.0 mi South 3.5 mph - N/A   Partly Cloudy
4:53 AM 54.0 °F 50.0 °F 86% 29.91 in 10.0 mi Calm Calm - N/A   Mostly Cloudy
5:53 AM 54.0 °F 51.1 °F 90% 29.90 in 10.0 mi ESE 3.5 mph - N/A   Scattered Clouds
6:53 AM 53.1 °F 50.0 °F 89% 29.91 in 10.0 mi Calm Calm - N/A   Overcast
7:53 AM 51.1 °F 48.9 °F 92% 29.94 in 10.0 mi Calm Calm - N/A   Partly Cloudy
8:53 AM 57.9 °F 52.0 °F 81% 29.91 in 10.0 mi Calm Calm - N/A   Clear
9:53 AM 62.1 °F 53.1 °F 72% 29.91 in 10.0 mi Calm Calm - N/A   Clear
10:53 AM 66.0 °F 53.1 °F 63% 29.89 in 10.0 mi Calm Calm - N/A   Clear
11:53 AM 68.0 °F 53.1 °F 59% 29.88 in 10.0 mi SW 5.8 mph - N/A   Overcast
12:53 PM 68.0 °F 53.1 °F 59% 29.87 in 10.0 mi West 6.9 mph - N/A   Overcast
1:53 PM 69.1 °F 53.1 °F 57% 29.84 in 10.0 mi WSW 6.9 mph - N/A   Overcast
2:31 PM 73.4 °F 53.6 °F 50% 29.99 in 10.0 mi SW 9.2 mph - N/A Thunderstorm Scattered Clouds
2:46 PM 69.8 °F 51.8 °F 53% 29.99 in 10.0 mi SW 11.5 mph - N/A   Mostly Cloudy
2:53 PM 70.0 °F 53.1 °F 55% 29.82 in 10.0 mi SW 11.5 mph - N/A   Mostly Cloudy
3:53 PM 70.0 °F 53.1 °F 55% 29.81 in 10.0 mi SW 8.1 mph - N/A   Partly Cloudy
4:53 PM 72.0 °F 53.1 °F 51% 29.78 in 10.0 mi WSW 11.5 mph - N/A   Partly Cloudy
5:05 PM 69.8 °F 51.8 °F 53% 29.96 in 10.0 mi SW 12.7 mph - N/A Thunderstorm Partly Cloudy
5:19 PM 69.8 °F 51.8 °F 53% 29.96 in 10.0 mi SW 10.4 mph - N/A Thunderstorm Clear
5:53 PM 69.1 °F 51.1 °F 53% 29.78 in 10.0 mi SW 10.4 mph 17.3 mph N/A Thunderstorm Mostly Cloudy
6:04 PM 68.0 °F 51.8 °F 56% 29.96 in 10.0 mi West 11.5 mph 18.4 mph N/A   Overcast
6:18 PM 69.8 °F 51.8 °F 53% 29.97 in 10.0 mi WNW 8.1 mph - N/A Thunderstorm Thunderstorm
6:32 PM 64.4 °F 53.6 °F 68% 29.97 in 10.0 mi Variable 4.6 mph - N/A Thunderstorm Mostly Cloudy
6:53 PM 62.1 °F 54.0 °F 75% 29.85 in 10.0 mi North 9.2 mph - N/A Thunderstorm Mostly Cloudy
7:30 PM 59.0 °F 53.6 °F 82% 29.99 in 10.0 mi ENE 11.5 mph - 0.08 in Rain Light Rain
7:53 PM 60.1 °F 55.9 °F 86% 29.86 in 10.0 mi SSE 5.8 mph - 0.08 in   Mostly Cloudy
8:53 PM 57.0 °F 54.0 °F 89% 29.86 in 10.0 mi South 5.8 mph - 0.01 in Rain Light Rain
9:53 PM 55.9 °F 53.1 °F 90% 29.86 in 10.0 mi WNW 3.5 mph - 0.00 in   Scattered Clouds
10:53 PM 55.9 °F 53.1 °F 90% 29.85 in 10.0 mi Calm Calm - N/A   Scattered Clouds
11:53 PM 54.0 °F 52.0 °F 93% 29.84 in 10.0 mi Calm Calm - N/A   Clear